Weather History for Milton, FL

Change the Weather History Date:

Friday, November 9, 2012

  Actual Average (KNSE) Record (KNSE)
Temperature  
Mean Temperature 53 °F -  
Max Temperature 71 °F 68 °F 80 °F (2005)
Min Temperature 35 °F 50 °F 36 °F (2007)
Degree Days  
Heating Degree Days 12    
Growing Degree Days 3 (Base 50)    
Moisture  
Dew Point 42 °F    
Average Humidity 70    
Maximum Humidity 93    
Minimum Humidity 31    
Precipitation  
Precipitation 0.00 in - - ()
Sea Level Pressure  
Sea Level Pressure 30.21 in    
Wind  
Wind Speed 2 mph (East)    
Max Wind Speed 8 mph    
Max Gust Speed -    
Visibility 10 miles    
Events      
Averages and records for this station are not official NWS values.
T = Trace of Precipitation, MM = Missing Value Source: NWS Daily Summary

Daily Weather History Graph

Daily Weather History Graph

Search for Another Location

Airport:

Trip Planner

Search our weather history database for the weather conditions in past years. The results will help you decide how hot, cold, wet, or windy it might be!

Date:

Astronomy

Nov. 09, 2012 Rise Set
Actual Time 6:09 AM CST 4:53 PM CST
Civil Twilight 5:44 AM CST 5:19 PM CST
Nautical Twilight 5:15 AM CST 5:47 PM CST
Astronomical Twilight 4:47 AM CST 6:16 PM CST
Moon 1:26 AM CST (11/9) 1:50 PM CST (11/9)
Length of Visible Light 11h 34m
Length of Day
10h 43m
Waning Crescent, 23% of the Moon is Illuminated
Nov 9
Waning Crescent
Nov 13
New
Nov 20
First Quarter
Nov 28
Full
Dec 6
Last Quarter

Hourly Weather History & Observations

Time (CST) Temp. Windchill Dew Point Humidity Pressure Visibility Wind Dir Wind Speed Gust Speed Precip Events Conditions
12:56 AM 39.9 °F - 37.9 °F 93% 30.18 in 10.0 mi Calm Calm - N/A   Clear
1:56 AM 39.9 °F - 37.0 °F 89% 30.18 in 10.0 mi Calm Calm - N/A   Clear
2:56 AM 39.0 °F 36.8 °F 37.0 °F 93% 30.18 in 10.0 mi NNE 3.5 mph - N/A   Clear
3:56 AM 36.0 °F 33.3 °F 34.0 °F 93% 30.19 in 10.0 mi NNE 3.5 mph - N/A   Clear
4:56 AM 36.0 °F 33.3 °F 33.1 °F 89% 30.21 in 10.0 mi NNE 3.5 mph - N/A   Clear
5:56 AM 35.1 °F - 32.0 °F 89% 30.23 in 9.0 mi Calm Calm - N/A   Clear
6:56 AM 36.0 °F - 34.0 °F 93% 30.26 in 10.0 mi Calm Calm - N/A   Clear
7:56 AM 52.0 °F - 43.0 °F 71% 30.26 in 10.0 mi ENE 3.5 mph - N/A   Clear
8:56 AM 57.0 °F - 43.0 °F 59% 30.27 in 10.0 mi East 3.5 mph - N/A   Clear
9:56 AM 64.0 °F - 43.0 °F 46% 30.27 in 10.0 mi Variable 3.5 mph - N/A   Clear
10:56 AM 66.9 °F - 44.1 °F 44% 30.26 in 10.0 mi Variable 3.5 mph - N/A   Clear
11:56 AM 69.1 °F - 41.0 °F 36% 30.23 in 10.0 mi Calm Calm - N/A   Clear
12:56 PM 70.0 °F - 39.0 °F 32% 30.20 in 10.0 mi Variable 3.5 mph - N/A   Clear
1:56 PM 71.1 °F - 39.0 °F 31% 30.18 in 10.0 mi East 5.8 mph - N/A   Clear
2:56 PM 70.0 °F - 39.9 °F 33% 30.17 in 10.0 mi SSW 3.5 mph - N/A   Clear
3:56 PM 66.0 °F - 48.9 °F 54% 30.18 in 10.0 mi South 8.1 mph - N/A   Clear
4:56 PM 61.0 °F - 48.9 °F 64% 30.19 in 10.0 mi South 5.8 mph - N/A   Clear
5:56 PM 57.9 °F - 48.9 °F 72% 30.20 in 10.0 mi South 3.5 mph - N/A   Clear
6:56 PM 57.0 °F - 50.0 °F 77% 30.21 in 10.0 mi Calm Calm - N/A   Clear
7:56 PM 52.0 °F - 48.9 °F 89% 30.21 in 10.0 mi Calm Calm - N/A   Clear
8:56 PM 52.0 °F - 48.0 °F 86% 30.22 in 10.0 mi Calm Calm - N/A   Clear
9:56 PM 50.0 °F - 46.0 °F 86% 30.22 in 10.0 mi Calm Calm - N/A   Clear
10:56 PM 46.0 °F 44.8 °F 43.0 °F 89% 30.21 in 10.0 mi NE 3.5 mph - N/A   Clear
11:56 PM 48.9 °F - 44.1 °F 83% 30.21 in 10.0 mi ENE 3.5 mph - N/A   Clear